This is the latest recevied weather packets stored in our database for station/object K7SKM. If no packets are shown the sender has not sent any weather packets the latest 10 day(s).
| Time | Temp. | Humidity | Pressure | Rain* | Wind** | Luminosity | Snow |
|---|---|---|---|---|---|---|---|
| 1777019466 | 5.56° C | 90% | 1025.7 hPa | 0 mm | - | 0 W/m² | - |
| 1777019163 | 5.56° C | 89% | 1025.8 hPa | 0 mm | - | 0 W/m² | - |
| 1777018860 | 6.11° C | 89% | 1025.9 hPa | 0 mm | - | 0 W/m² | - |
| 1777018556 | 5.56° C | 89% | 1026 hPa | 0 mm | - | 0 W/m² | - |
| 1777018254 | 6.11° C | 88% | 1026 hPa | 0 mm | - | 0 W/m² | - |
| 1777017950 | 6.11° C | 89% | 1025.9 hPa | 0 mm | - | 0 W/m² | - |
| 1777017646 | 6.67° C | 88% | 1026.2 hPa | 0 mm | - | 0 W/m² | - |
| 1777017343 | 6.67° C | 89% | 1026 hPa | 0 mm | - | 0 W/m² | - |
| 1777017039 | 6.67° C | 89% | 1026 hPa | 0 mm | - | 0 W/m² | - |
| 1777016736 | 6.67° C | 88% | 1026 hPa | 0 mm | - | 0 W/m² | - |
| 1777016433 | 6.11° C | 88% | 1025.7 hPa | 0 mm | - | 0 W/m² | - |
| 1777016129 | 6.67° C | 87% | 1025.8 hPa | 0 mm | - | 0 W/m² | - |
| 1777015827 | 6.67° C | 87% | 1025.6 hPa | 0 mm | - | 0 W/m² | - |
| 1777015523 | 6.67° C | 87% | 1025.6 hPa | 0 mm | - | 0 W/m² | - |
| 1777015220 | 7.22° C | 87% | 1025.6 hPa | 0 mm | - | 0 W/m² | - |
| 1777014915 | 7.22° C | 86% | 1025.4 hPa | 0 mm | - | 0 W/m² | - |
| 1777014609 | 7.22° C | 87% | 1025.6 hPa | 0 mm | - | 0 W/m² | - |
| 1777014304 | 7.22° C | 86% | 1025.6 hPa | 0 mm | - | 0 W/m² | - |
| 1777014000 | 7.22° C | 86% | 1025.4 hPa | 0 mm | - | 0 W/m² | - |
| 1777013697 | 7.22° C | 85% | 1025.5 hPa | 0 mm | - | 0 W/m² | - |
| 1777013395 | 7.22° C | 85% | 1025.5 hPa | 0 mm | - | 0 W/m² | - |
| 1777013091 | 7.78° C | 85% | 1025.5 hPa | 0 mm | - | 0 W/m² | - |
| 1777012788 | 7.78° C | 85% | 1025.5 hPa | 0 mm | - | 0 W/m² | - |
| 1777012483 | 7.78° C | 84% | 1025.7 hPa | 0 mm | - | 0 W/m² | - |
| 1777012179 | 7.78° C | 84% | 1025.7 hPa | 0 mm | - | 0 W/m² | - |
* Rain latest hour (hover to see other rain measurements)
** Current wind speed in m/s (hover to see current wind gust speed)